Satellite-Ground Cal/Val Site Overpasses Predictions

Prediction of Satellite NPP Overpassing Cal/Val Site: Antarctic Dome C

Ground Cal/Val Site Location: Latitude: -75.10, Longitude: 123.35; Satellite-Ground Site NADIR distance within 100 km.

Table of predicted overpasses for the next 14.0 days since TLE Epoch: 11/1/2015
Interval Starting Time Ending Time Minimum Distance Time Minimum Distance (km)
1 11/02/2015 15:10:17 11/02/2015 15:10:28 11/02/2015 15:10:22 92.21
2 11/03/2015 14:51:16 11/03/2015 14:51:45 11/03/2015 14:51:31 18.99
3 11/05/2015 07:34:05 11/05/2015 07:34:35 11/05/2015 07:34:20 2.97
4 11/08/2015 14:57:29 11/08/2015 14:57:58 11/08/2015 14:57:43 17.60
5 11/09/2015 14:38:48 11/09/2015 14:39:00 11/09/2015 14:38:54 89.53
6 11/10/2015 07:40:18 11/10/2015 07:40:45 11/10/2015 07:40:31 38.95
7 11/11/2015 07:21:31 11/11/2015 07:21:51 11/11/2015 07:21:41 71.12
8 11/13/2015 15:03:43 11/13/2015 15:04:08 11/13/2015 15:03:56 54.50
9 11/14/2015 14:44:52 11/14/2015 14:45:17 11/14/2015 14:45:05 54.72
